TimeCST,TemperatureF,Dew PointF,Humidity,Sea Level PressureIn,VisibilityMPH,Wind Direction,Wind SpeedMPH,Gust SpeedMPH,PrecipitationIn,Events,Conditions,WindDirDegrees,DateUTC
6:00 AM,69,60,64,,6,ESE,11.5,,,,Clear,110,2012-10-04 12:00:00
6:00 AM,68.0,59.0,73,30.03,-9999.0,ESE,11.5,-,N/A,,Clear,110,2012-10-04 12:00:00
7:00 AM,71.6,60.8,69,30.05,-9999.0,ESE,11.5,-,N/A,,Clear,110,2012-10-04 13:00:00
8:00 AM,75.2,60.8,61,30.07,6.2,ENE,15.0,-,N/A,,Partly Cloudy,70,2012-10-04 14:00:00
9:00 AM,77,62,49,,6,ENE,11.5,,,,Scattered Clouds,60,2012-10-04 15:00:00
9:00 AM,77.0,60.8,57,30.07,6.2,ENE,11.5,23.0,N/A,,Scattered Clouds,60,2012-10-04 15:00:00
10:00 AM,75.2,62.6,65,30.08,6.2,ENE,15.0,-,N/A,,Scattered Clouds,60,2012-10-04 16:00:00
11:00 AM,75.2,62.6,65,30.05,6.2,ENE,13.8,25.3,N/A,,Scattered Clouds,70,2012-10-04 17:00:00
12:00 PM,79,60,43,,6,East,11.5,,,,Partly Cloudy,90,2012-10-04 18:00:00
12:00 PM,78.8,60.8,54,30.01,6.2,East,11.5,23.0,N/A,,Mostly Cloudy,90,2012-10-04 18:00:00
1:00 PM,80.6,59.0,48,29.96,6.2,ESE,13.8,-,N/A,,Mostly Cloudy,120,2012-10-04 19:00:00
2:00 PM,86.0,59.0,40,29.92,6.2,SE,6.9,-,N/A,,Mostly Cloudy,140,2012-10-04 20:00:00
2:35 PM,86.0,59.0,40,29.92,6.2,WNW,4.6,-,N/A,,Mostly Cloudy,300,2012-10-04 20:35:00
3:00 PM,79,71,70,,6,West,11.5,,,,Scattered Clouds,260,2012-10-04 21:00:00
3:00 PM,78.8,71.6,78,29.93,6.2,West,11.5,-,N/A,,Mostly Cloudy,260,2012-10-04 21:00:00
3:33 PM,77.0,69.8,78,29.94,3.7,West,13.8,-,N/A,,Mostly Cloudy,280,2012-10-04 21:33:00
3:52 PM,75.2,69.8,83,29.95,3.1,West,12.7,-,N/A,Rain,Rain,280,2012-10-04 21:52:00
4:00 PM,75.2,69.8,83,29.96,3.1,West,12.7,-,N/A,Rain,Rain,280,2012-10-04 22:00:00
4:15 PM,73.4,69.8,88,29.96,2.5,West,12.7,-,N/A,Rain-Thunderstorm,Rain Showers,280,2012-10-04 22:15:00
5:00 PM,71.6,68.0,88,29.98,3.1,WNW,11.5,-,N/A,Rain-Thunderstorm,Rain,290,2012-10-04 23:00:00
5:10 PM,71.6,68.0,88,29.99,3.7,West,11.5,-,N/A,Rain-Thunderstorm,Rain,280,2012-10-04 23:10:00
6:00 PM,71,68,87,,3,WNW,8.1,,,Rain,Light Rain,290,2012-10-05 00:00:00
6:00 PM,71.6,68.0,88,30.00,3.1,WNW,8.1,-,N/A,Rain-Thunderstorm,Rain,290,2012-10-05 00:00:00